Tracking 19484 objects as of 20-Jan-2019
HD Live streaming from Space Station
objects crossing your sky now

FLOCK 3S 1

Track FLOCK 3S 1 now!
10-day predictions
FLOCK 3S 1 is classified as:


NORAD ID: 43769
Int'l Code: 2018-099M
Perigee: 579.6 km
Apogee: 601.5 km
Inclination: 97.8 °
Period: 96.3 minutes
Semi major axis: 6961 km
RCS: Unknown
Launch date: December 3, 2018
Source: United States (US)
Launch site: AIR FORCE WESTERN TEST RANGE (AFWTR)
aabbcc
Your satellite tracking list
Your tracking list is empty




NASA's NSSDC Master Catalog

Two Line Element Set (TLE):
1 43769U 18099M   19020.14978220  .00000442  00000-0  45999-4 0  9991
2 43769  97.7581  93.7795 0015740 109.9457 250.3460 14.94658793  7081
Source of the keplerian elements: AFSPC